Temperature
21 19 19 19 20 21 22 22 21 22 23 23 23 22 22 22 22 21 21 20 20 20 20 19 19 19 19 19 19 19 18 18 18 17 17 17 17 17 17 17 17 17 17 17
20 19 20 21 21 22 22 22 21 22 23 24 23 22 22 21 22 21 21 21 21 20 19 19 19 19 19 19 19 18 18 18 17 17 17 17 17 17 17 17 17 17 17 17
20 21 22 21 22 22 22 21 22 22 22 23 23 22 22 22 21 21 21 21 21 21 20 19 19 19 19 19 19 18 18 18 17 17 17 17 17 17 17 17 17 17 17 17
20 21 22 22 22 22 21 22 22 23 22 20 22 21 21 21 20 20 20 20 20 20 20 20 19 19 19 19 19 18 18 18 17 17 17 17 17 17 17 17 17 17 17 16
20 21 22 22 22 22 22 23 23 22 21 20 21 20 20 20 21 20 20 20 20 20 20 20 19 19 19 19 18 18 17 17 17 17 17 17 17 17 17 17 17 17 17 16
21 22 22 22 23 23 23 22 20 18 18 20 21 20 20 19 20 20 20 20 20 20 20 19 19 19 18 18 18 18 17 17 17 17 17 17 17 17 17 17 17 17 17 16
22 22 23 23 24 23 22 20 19 20 18 19 19 20 19 20 20 20 20 20 20 20 19 19 19 19 18 18 18 18 17 17 17 17 17 17 17 17 17 17 17 17 17 17
20 20 22 22 22 22 21 20 19 20 19 19 19 19 20 21 20 21 20 20 20 20 19 19 19 19 18 18 18 17 17 17 17 17 17 17 17 17 17 17 17 17 17 17
19 20 22 23 23 22 20 19 19 18 19 19 19 19 20 21 20 19 19 19 19 19 19 19 19 19 18 18 18 17 17 17 17 17 17 17 17 17 17 17 17 17 17 17
19 21 23 23 23 22 21 18 17 17 18 19 20 20 20 21 20 19 18 19 19 19 19 19 19 19 18 18 18 18 17 17 17 17 17 17 17 17 17 17 17 17 17 17
20 21 22 22 23 22 20 19 17 16 17 18 19 20 20 20 19 19 18 19 19 19 20 20 19 19 19 18 18 18 18 17 17 17 17 17 17 17 17 17 17 17 17 17
18 18 19 21 22 22 21 19 17 19 18 17 18 19 20 19 18 19 19 19 19 19 19 19 19 19 19 18 18 18 18 17 17 17 17 17 17 17 17 17 16 16 16 16
18 18 19 20 21 21 21 19 18 16 15 15 18 20 19 18 18 19 19 19 19 19 19 19 19 19 19 18 18 18 17 17 17 17 17 17 17 17 17 17 16 16 16 16
18 16 18 19 19 20 21 20 18 17 17 17 18 20 19 18 17 17 18 19 19 19 19 19 19 19 19 19 18 18 18 17 17 17 17 17 17 17 17 16 16 16 16 16
17 17 18 19 20 20 21 20 20 20 18 18 19 19 19 17 17 17 18 19 18 18 18 19 19 19 19 19 18 18 18 18 17 17 17 17 17 17 16 16 16 16 16 16
15 17 18 19 20 20 20 20 20 20 19 19 19 19 17 17 17 17 17 18 18 18 18 18 19 19 19 18 18 18 18 18 17 17 17 17 17 16 16 16 16 16 16 16
14 16 17 18 19 20 19 19 19 19 18 19 19 18 16 16 16 16 16 17 17 17 18 18 18 18 19 18 18 18 18 18 17 17 17 17 17 16 16 16 16 16 16 16
14 14 13 16 19 19 18 18 18 17 17 17 17 16 16 16 16 16 17 17 17 17 18 18 18 18 18 18 18 18 18 17 17 17 17 17 17 16 16 16 16 16 16 16
13 14 14 14 16 18 18 18 18 17 17 16 16 16 16 16 16 16 17 17 17 17 17 18 18 18 18 18 18 17 17 17 17 17 17 17 16 16 16 16 16 16 16 16
13 13 13 14 16 17 17 18 18 17 17 16 16 15 15 16 15 15 16 16 17 17 17 17 17 17 17 17 17 17 17 17 17 17 17 16 16 16 16 16 16 15 15 15
14 13 14 14 15 16 16 16 18 18 17 16 16 15 15 15 15 15 16 16 16 16 16 17 17 17 17 17 17 17 16 16 16 16 16 16 16 16 15 15 15 15 14 14
13 13 13 13 15 15 15 16 16 15 15 15 16 16 15 15 15 15 15 15 15 15 15 16 16 16 16 16 16 16 16 16 15 15 15 15 15 15 15 14 14 14 14 14
12 12 12 13 13 13 13 14 14 15 15 15 15 15 15 15 14 14 15 15 15 15 15 15 15 15 15 15 15 15 15 15 15 15 15 14 14 14 14 14 13 13 13 13
12 11 11 12 12 12 13 13 14 15 15 15 15 15 15 15 14 14 14 14 14 14 14 14 14 14 14 14 14 14 14 14 14 14 14 14 13 13 13 13 13 12 12 12
12 11 11 12 12 12 13 13 14 14 15 15 15 15 14 14 14 13 13 13 13 13 13 13 13 13 13 13 13 13 13 14 14 13 13 13 13 13 12 12 11 11 11 11
11 11 12 12 12 11 12 13 13 14 14 14 14 14 14 14 13 13 12 12 13 12 12 13 13 13 12 13 13 13 13 13 13 13 12 12 12 12 12 11 11 10 10 10
Wind_Speed
5 4 6 8 8 6 3 3 7 8 6 4 6 7 6 2 2 4 5 7 8 8 7 8 9 10 12 12 12 13 13 11 10 7 8 7 6 5 5 5 8 10 11 11
4 6 9 7 5 4 4 5 7 8 3 2 5 7 4 1 2 5 7 8 9 8 8 8 9 10 12 13 13 12 12 12 10 8 7 5 5 4 5 4 7 10 11 11
9 5 5 7 6 5 6 6 6 6 7 5 3 7 5 3 1 1 4 6 8 10 11 10 10 10 10 12 14 13 12 11 10 8 5 5 4 3 3 4 5 7 10 11
6 7 3 4 6 7 6 7 8 5 2 5 2 4 7 4 4 2 3 5 7 8 9 9 10 10 10 10 10 11 11 10 10 9 9 10 8 6 6 6 5 5 8 10
8 6 8 8 9 10 8 3 3 2 3 2 2 2 8 4 5 6 5 5 5 7 10 10 10 10 9 8 8 9 10 10 10 10 10 10 7 5 5 5 6 6 5 7
6 5 7 9 6 8 5 5 6 6 5 1 3 3 7 5 6 5 4 3 4 7 9 8 7 7 6 7 7 8 10 9 10 10 10 10 10 8 8 8 7 6 4 4
4 5 5 6 2 1 5 6 4 4 3 6 3 3 9 7 6 5 4 3 4 7 8 8 8 8 8 8 8 8 9 9 9 10 10 9 9 10 10 9 8 7 5 4
6 7 7 8 10 7 7 10 8 6 5 5 2 5 7 5 4 3 2 4 6 7 7 8 8 7 7 8 8 8 9 8 9 10 10 8 9 8 7 8 7 8 7 6
9 7 6 6 7 12 8 6 8 7 3 1 5 7 8 2 1 1 3 5 6 7 7 7 7 7 7 7 8 8 9 8 8 8 8 8 8 8 7 7 7 6 5 5
10 5 5 2 5 2 7 10 7 7 7 4 5 5 5 6 4 1 3 4 5 6 6 7 6 6 6 6 6 7 8 8 8 8 8 8 7 7 7 7 7 7 6 6
8 6 4 3 4 6 6 6 6 6 6 7 4 7 6 7 5 4 5 5 6 7 7 7 6 6 5 5 6 7 7 7 7 8 7 7 7 7 7 7 7 7 6 7
7 6 3 5 4 2 6 8 8 7 5 5 5 7 5 4 3 3 4 5 6 7 7 6 6 5 5 5 5 6 7 7 7 7 7 7 7 7 7 7 7 7 7 7
8 7 3 4 4 2 3 4 5 7 6 6 6 6 3 2 1 1 3 5 6 7 7 6 6 5 5 5 5 6 6 7 7 7 7 7 7 7 7 7 6 7 7 7
6 5 7 10 8 5 4 3 5 7 6 6 7 6 4 3 1 1 2 5 6 6 7 6 6 5 5 5 6 6 6 7 8 8 8 7 7 7 7 6 6 7 7 7
6 5 4 3 3 5 4 4 5 5 8 8 8 7 6 4 3 1 2 4 6 5 5 5 5 5 4 4 5 6 6 6 7 8 8 8 7 7 6 6 6 6 6 7
4 5 4 3 2 5 3 2 3 3 4 4 4 3 2 1 2 2 2 3 4 4 4 4 3 4 5 5 5 5 6 6 7 8 8 7 7 7 7 6 6 6 5 5
3 5 5 2 0 5 1 2 3 3 1 4 5 4 1 2 2 1 1 1 2 2 3 3 2 3 4 5 5 6 6 6 7 7 7 6 7 6 6 6 6 6 6 6
6 5 4 4 4 5 5 2 4 6 3 1 2 2 2 3 2 2 2 2 2 2 3 3 3 2 2 3 4 4 4 6 7 6 6 6 6 6 5 6 6 6 5 5
4 7 5 4 4 1 3 2 4 5 1 0 3 4 4 4 4 3 3 3 3 2 1 1 1 2 1 2 3 5 5 5 6 5 5 6 6 6 6 6 6 5 5 5
6 6 6 5 5 7 7 2 1 6 1 2 3 5 4 3 2 1 1 3 4 4 2 2 2 3 3 1 3 5 5 5 5 5 5 5 6 6 6 6 5 5 5 5
4 4 5 5 4 5 4 2 2 5 7 4 4 4 4 3 3 3 3 4 4 4 4 3 3 4 3 2 4 5 4 4 4 4 5 5 6 6 6 7 6 7 7 8
5 5 4 5 4 7 2 2 5 5 1 4 4 4 4 4 5 4 4 4 5 5 5 5 5 6 5 3 5 5 4 4 6 7 6 6 6 6 7 8 8 8 8 9
3 5 5 6 5 2 1 1 1 2 3 2 3 4 6 6 5 4 4 4 5 5 5 5 6 7 7 6 5 6 5 7 9 9 9 8 9 8 8 9 9 7 7 7
1 2 3 2 1 0 1 1 2 2 2 2 3 5 6 6 6 6 5 4 4 5 5 5 7 8 7 7 8 7 7 9 11 12 10 10 10 11 10 9 8 7 7 7
3 3 3 2 1 1 2 2 3 4 5 5 5 5 6 7 7 6 5 5 5 5 5 6 7 8 8 8 9 8 8 10 12 12 12 11 11 12 13 12 10 9 8 6
3 5 6 5 6 5 3 1 2 4 4 5 7 7 6 7 7 7 6 5 6 6 6 7 8 9 9 9 9 8 8 10 12 12 11 10 10 10 11 13 14 19 16 18
Wind_Direction
138 121 192 201 191 188 185 254 282 276 290 313 299 294 293 268 174 164 166 171 176 182 167 163 166 163 163 166 173 176 174 174 170 171 173 173 180 177 174 182 182 179 176 174
93 234 218 188 178 183 210 267 283 297 322 300 298 302 299 261 190 182 181 185 180 169 160 164 161 165 171 175 179 181 179 176 179 182 177 170 165 174 178 174 179 180 175 172
179 222 183 169 191 205 234 224 247 270 325 353 341 327 316 320 10 162 178 177 177 178 172 170 170 174 176 182 186 186 184 179 180 173 157 144 132 129 153 169 177 181 177 176
215 238 196 188 208 188 249 229 221 250 323 302 20 290 293 304 306 258 213 185 183 177 170 172 173 178 186 189 184 182 181 180 178 172 173 169 175 179 184 177 176 174 177 179
220 204 191 211 219 184 218 210 202 236 194 275 335 186 285 316 281 265 244 214 190 176 173 178 179 183 184 180 180 179 177 180 180 179 180 178 179 176 160 157 160 171 176 180
219 213 192 203 212 191 186 73 55 49 81 277 250 180 275 256 240 257 243 215 184 167 169 171 168 164 168 172 176 175 177 183 182 182 183 183 178 167 161 164 169 173 171 177
258 252 227 186 178 143 127 98 30 359 16 249 266 206 251 259 249 242 237 204 169 161 163 166 164 167 170 175 178 180 181 187 185 182 185 184 181 175 178 175 176 174 175 183
196 264 229 195 185 183 172 146 160 192 217 268 304 235 255 269 272 258 185 160 149 157 164 167 170 170 172 176 177 177 180 182 181 183 184 179 176 176 180 178 177 182 187 187
182 239 268 221 186 153 146 178 163 136 152 236 283 285 306 281 326 83 121 139 154 163 165 161 161 166 169 173 177 175 173 175 176 178 175 171 172 173 173 174 175 179 179 179
157 215 284 286 109 93 146 143 113 131 149 214 283 283 263 275 263 207 157 166 163 155 151 149 155 161 163 169 169 168 171 177 175 173 175 177 173 173 169 169 176 179 178 174
148 172 296 24 153 169 119 115 116 118 146 157 218 267 233 238 235 211 199 181 168 163 161 156 155 156 152 151 161 167 168 167 170 174 173 169 170 170 171 179 185 184 180 179
156 139 216 265 273 198 156 159 147 149 183 167 169 257 282 251 219 193 186 171 162 158 154 152 150 148 149 153 162 171 172 173 174 173 169 170 169 169 175 185 188 184 184 186
139 129 118 352 343 22 109 138 142 123 120 148 163 254 318 5 93 171 177 170 160 154 150 148 151 156 160 158 166 171 173 177 173 169 171 170 172 176 184 189 188 185 185 185
123 118 160 185 205 185 156 145 143 124 142 177 205 231 288 302 291 278 179 164 160 157 157 157 159 167 168 165 168 170 175 175 170 169 173 178 183 185 187 186 186 187 185 181
108 129 154 175 182 151 153 157 158 154 168 172 209 210 250 258 243 241 170 146 142 149 159 168 169 170 165 164 173 175 176 172 170 170 179 189 187 184 184 187 187 183 181 185
79 124 114 56 76 125 109 109 138 131 140 158 151 221 271 304 90 73 88 140 152 159 158 164 172 173 174 181 185 180 177 174 167 175 185 184 181 183 186 184 177 172 176 177
85 114 109 153 157 88 125 217 164 136 123 154 180 217 181 85 94 113 111 124 141 151 146 155 179 205 195 191 186 186 183 167 166 176 179 176 176 180 183 176 166 170 176 168
123 100 108 124 117 175 238 281 140 117 82 88 142 146 146 131 114 71 66 87 77 97 117 130 159 191 199 185 177 172 163 162 167 172 176 173 170 174 168 163 168 171 164 160
131 127 111 117 139 169 264 190 153 134 105 354 145 133 115 109 78 40 41 62 74 77 90 114 148 152 157 171 169 155 154 154 157 165 169 167 163 162 158 161 162 156 144 136
57 89 112 121 141 204 224 223 165 110 172 235 159 158 151 113 108 256 36 61 54 56 65 73 79 89 99 126 143 147 156 158 169 171 163 157 153 152 156 155 139 123 121 120
65 65 113 138 171 240 248 271 131 162 217 187 170 172 163 162 182 152 86 62 60 57 51 59 72 74 68 87 127 137 143 155 153 135 128 130 134 137 133 122 114 114 112 107
155 141 157 141 166 231 281 140 172 198 159 154 164 165 144 129 121 114 93 78 68 62 55 56 65 57 44 65 112 118 118 118 113 114 114 113 114 117 116 113 109 109 111 106
175 185 177 177 195 231 309 201 223 145 140 157 156 151 139 135 129 116 98 79 70 64 58 58 68 62 49 50 86 104 105 108 105 101 101 101 97 93 100 106 108 106 105 105
221 140 126 136 200 325 8 42 42 55 108 118 134 140 139 136 131 115 103 87 71 65 60 64 69 66 57 56 70 84 95 101 102 101 98 98 98 91 84 84 87 94 97 103
203 144 123 130 166 76 1 45 66 69 81 90 96 111 121 122 118 113 107 96 86 80 71 72 76 73 66 64 67 74 86 98 98 98 97 94 92 93 86 77 68 76 66 90
205 177 168 196 194 176 201 193 95 96 95 100 103 98 101 110 115 111 104 97 92 85 79 79 79 79 75 73 72 71 80 96 102 99 96 95 96 96 97 96 82 63 71 72
Height
1482 1489 1494 1493 1491 1493 1494 1498 1501 1493 1484 1484 1484 1481 1475 1472 1473 1475 1477 1479 1481 1482 1486 1489 1491 1494 1496 1499 1503 1506 1510 1514 1518 1522 1526 1530 1534 1539 1543 1546 1550 1553 1556 1558
1486 1490 1484 1484 1487 1490 1493 1498 1498 1490 1483 1483 1484 1481 1475 1473 1473 1473 1474 1476 1478 1481 1484 1486 1489 1491 1493 1496 1500 1503 1507 1511 1515 1520 1524 1529 1533 1537 1541 1544 1548 1552 1555 1557
1484 1482 1477 1483 1487 1491 1493 1496 1495 1493 1486 1483 1485 1487 1479 1474 1474 1474 1473 1474 1476 1478 1481 1484 1487 1489 1492 1495 1498 1501 1505 1509 1514 1518 1523 1527 1531 1535 1538 1542 1546 1550 1553 1556
1480 1476 1477 1481 1484 1487 1495 1485 1487 1489 1496 1501 1493 1506 1486 1479 1476 1473 1473 1473 1474 1477 1479 1482 1485 1488 1490 1493 1496 1499 1503 1507 1512 1516 1520 1523 1527 1530 1534 1539 1543 1547 1551 1554
1477 1472 1475 1480 1478 1480 1483 1479 1483 1487 1494 1501 1498 1505 1496 1481 1478 1474 1471 1472 1473 1475 1478 1481 1483 1486 1488 1491 1494 1497 1502 1505 1509 1513 1517 1521 1525 1529 1533 1538 1542 1546 1549 1552
1469 1467 1468 1470 1469 1471 1474 1481 1488 1497 1503 1512 1500 1505 1500 1486 1477 1472 1470 1471 1472 1474 1478 1480 1483 1485 1488 1491 1493 1495 1499 1503 1507 1511 1515 1518 1523 1527 1531 1535 1539 1543 1547 1550
1472 1467 1464 1464 1469 1471 1476 1494 1513 1514 1522 1517 1501 1502 1497 1475 1470 1469 1469 1470 1471 1474 1477 1480 1482 1484 1487 1489 1491 1494 1497 1501 1504 1508 1512 1516 1520 1524 1529 1533 1537 1541 1544 1547
1480 1480 1463 1460 1465 1473 1478 1488 1511 1520 1522 1515 1501 1502 1485 1470 1468 1467 1467 1469 1471 1473 1476 1478 1481 1484 1486 1488 1490 1493 1496 1499 1503 1506 1509 1514 1519 1523 1527 1531 1535 1539 1542 1546
1478 1477 1457 1454 1454 1462 1477 1484 1484 1504 1510 1513 1507 1495 1479 1468 1467 1467 1468 1469 1471 1473 1475 1478 1481 1483 1485 1488 1490 1492 1495 1498 1501 1504 1508 1512 1516 1521 1525 1529 1534 1537 1541 1544
1462 1470 1457 1452 1453 1458 1463 1475 1492 1504 1517 1518 1505 1498 1491 1474 1470 1468 1469 1469 1471 1473 1475 1478 1481 1483 1485 1488 1490 1492 1495 1498 1501 1504 1507 1511 1514 1519 1524 1528 1531 1535 1538 1541
1455 1466 1463 1458 1460 1463 1470 1476 1485 1498 1501 1515 1515 1502 1474 1471 1468 1468 1468 1469 1470 1473 1475 1478 1481 1483 1485 1487 1490 1492 1494 1497 1500 1503 1507 1510 1514 1518 1522 1526 1529 1532 1535 1538
1452 1465 1473 1465 1456 1454 1458 1467 1479 1492 1500 1504 1507 1498 1466 1465 1464 1465 1466 1468 1469 1472 1475 1478 1480 1482 1484 1486 1489 1491 1493 1496 1499 1503 1506 1509 1513 1516 1520 1523 1526 1530 1532 1535
1450 1464 1478 1475 1469 1460 1461 1465 1470 1479 1494 1504 1504 1491 1465 1464 1464 1464 1465 1467 1468 1471 1474 1477 1479 1481 1484 1486 1488 1490 1492 1495 1498 1502 1505 1508 1511 1514 1517 1520 1523 1527 1530 1532
1442 1460 1469 1477 1472 1462 1462 1463 1467 1475 1490 1495 1490 1480 1469 1466 1465 1465 1465 1466 1468 1470 1473 1475 1478 1480 1482 1484 1486 1489 1491 1494 1497 1500 1503 1506 1509 1512 1515 1518 1521 1524 1527 1529
1442 1458 1458 1458 1455 1456 1457 1460 1463 1467 1473 1480 1477 1475 1468 1466 1465 1465 1465 1466 1468 1470 1473 1475 1477 1479 1482 1484 1486 1488 1490 1493 1495 1498 1501 1504 1507 1510 1513 1516 1518 1521 1524 1527
1445 1455 1457 1459 1455 1455 1459 1459 1461 1463 1466 1468 1469 1470 1465 1464 1465 1465 1466 1466 1468 1470 1472 1475 1477 1479 1481 1483 1485 1487 1489 1492 1494 1496 1499 1502 1505 1508 1510 1513 1516 1518 1521 1524
1451 1455 1463 1468 1460 1459 1470 1463 1462 1463 1464 1465 1469 1468 1465 1465 1465 1465 1466 1466 1467 1470 1471 1474 1475 1478 1479 1482 1484 1486 1488 1490 1492 1495 1498 1500 1503 1505 1508 1511 1513 1516 1518 1521
1450 1459 1468 1471 1467 1478 1469 1458 1458 1462 1464 1463 1463 1464 1464 1464 1465 1466 1467 1468 1468 1470 1471 1472 1475 1477 1478 1480 1482 1484 1486 1488 1491 1493 1496 1498 1500 1503 1506 1508 1510 1513 1516 1518
1445 1455 1468 1476 1477 1473 1465 1458 1459 1462 1466 1463 1463 1464 1465 1465 1466 1468 1468 1468 1469 1470 1471 1472 1474 1475 1477 1479 1481 1483 1484 1486 1488 1491 1494 1496 1498 1501 1503 1505 1507 1510 1513 1515
1449 1452 1465 1474 1477 1480 1466 1457 1456 1460 1468 1462 1462 1463 1464 1465 1470 1470 1468 1469 1469 1471 1472 1473 1474 1474 1475 1477 1479 1480 1482 1484 1486 1489 1492 1494 1496 1498 1501 1503 1505 1508 1510 1512
1457 1461 1466 1471 1473 1468 1458 1455 1456 1469 1467 1460 1461 1462 1464 1465 1467 1468 1468 1469 1470 1471 1472 1473 1473 1474 1474 1475 1477 1478 1480 1482 1485 1488 1490 1493 1495 1497 1499 1502 1504 1506 1508 1511
1459 1463 1467 1470 1472 1470 1455 1455 1458 1459 1456 1458 1459 1461 1463 1464 1466 1467 1468 1469 1470 1471 1472 1472 1472 1472 1473 1474 1475 1476 1478 1481 1484 1486 1489 1491 1494 1496 1498 1500 1503 1505 1508 1510
1456 1457 1459 1461 1463 1457 1454 1454 1455 1455 1456 1457 1459 1461 1462 1464 1466 1467 1469 1470 1471 1471 1472 1473 1473 1473 1474 1475 1476 1477 1479 1481 1483 1486 1488 1491 1493 1495 1498 1500 1502 1505 1508 1509
1454 1453 1455 1457 1456 1455 1454 1454 1454 1454 1456 1457 1458 1460 1462 1463 1465 1467 1469 1471 1471 1472 1473 1474 1474 1475 1475 1476 1477 1478 1480 1482 1483 1486 1488 1491 1494 1496 1498 1500 1503 1506 1509 1510
1451 1452 1454 1455 1455 1454 1454 1454 1454 1455 1456 1457 1459 1460 1462 1464 1466 1468 1470 1471 1472 1474 1474 1476 1476 1477 1477 1478 1479 1480 1482 1484 1485 1488 1490 1493 1495 1497 1500 1502 1505 1508 1510 1513
1449 1450 1452 1453 1451 1453 1454 1454 1455 1456 1457 1458 1459 1461 1463 1465 1467 1469 1471 1473 1474 1476 1477 1478 1479 1479 1480 1481 1482 1483 1485 1486 1487 1489 1492 1495 1498 1500 1502 1504 1508 1511 1514 1516